Location: Fours
(44.3167°N, 6.7000°E)
Time: 08:54:18
(UTC+00:00)

Meteor 1-4 Rocket - Pass Details

Date: 30 November 2020
Orbit: 449 x 500 km, 81.2° (Epoch: 25 January)

Event Time Altitude Azimuth Distance (km) Brightness Sun altitude
Rises 16:22:08 0° 150° (SSE) 2,527 6.2 -5.0°
Reaches altitude 10° 16:24:50 10° 128° (SE) 1,642 5.0 -5.5°
Maximum altitude 16:27:04 16° 89° (E) 1,319 4.2 -5.8°
Drops below altitude 10° 16:29:17 10° 51° (NE) 1,633 4.6 -6.2°
Enters shadow 16:30:29 - 38° (NE) 1,986 5.1 -6.4°
